Flag for Portugal Weather past 2 weeks in Viseu, Portugal

Now
46 °F

Cool.


Feels Like: 46 °F
Forecast: 48 / 55 °F
Wind: 2 mph from South

Location: Viseu

Current Time: Mar 1, 2015 at 1:26:03 AM

Latest Report: Mar 1, 2015 at 12:00 AM


Visibility: N/A

Pressure: 30.37 "Hg

Humidity: 99%

Dew point: 46 °F

Location of ViseuLocation

Historic Weather in Viseu — Graph

°F

Viseu temperature yesterday

Maximum temperature yesterday: 50 °F (at 5:00 PM)
Minimum temperature yesterday: 39 °F (at 2:00 AM)
Average temperature yesterday: 45 °F

Past Weeks' High & Low Weather Summary

 TemperatureHumidityPressure
High55 °F (Feb 27, 2:00 PM)100% (Feb 14, 6:00 PM)30.61 "Hg (Feb 14, 6:00 PM)
Low35 °F (Feb 18, 7:00 AM)37% (Feb 17, 3:00 PM)29.95 "Hg (Feb 14, 9:00 PM)
Average44 °F81%30.31 "Hg
* Reported Midnight between Feb 13 and Feb 14 — Midnight between Feb 28 and Mar 1, Viseu, Weather by CustomWeather, © 2015

Note: Actual official high and low records may vary slightly from our data, if they occured in-between our weather recording intervals... More about our weather records

Advertising

Viseu weather history for previous 24 hours

 ConditionsComfort  
Time TempWeatherWind HumidityBarometerVisibility
12:00 AM
Sun, Mar 1
46 °FCool.2 mph99%30.37 "HgN/A
11:00 PM
Sat, Feb 28
46 °FCool.3 mph99%30.38 "HgN/A
10:00 PM47 °FCool.5 mph99%30.38 "HgN/A
9:00 PM47 °FCool.5 mph99%30.39 "HgN/A
8:00 PM48 °FCool.2 mph99%30.38 "HgN/A
7:00 PM48 °FCool.5 mph99%30.37 "HgN/A
6:00 PM49 °FCool.6 mph100%30.34 "HgN/A
5:00 PM50 °FCool.5 mph99%30.32 "HgN/A
4:00 PM49 °FCool.2 mph100%30.33 "HgN/A
3:00 PM48 °FCool.3 mph99%30.34 "HgN/A
2:00 PM48 °FCool.2 mph100%30.35 "HgN/A
1:00 PM46 °FCool.3 mph99%30.38 "HgN/A
12:00 PM46 °FCool.2 mph100%30.40 "HgN/A
11:00 AM47 °FCool.2 mph99%30.40 "HgN/A
10:00 AM44 °FQuite cool.1 mph99%30.41 "HgN/A
9:00 AM42 °FQuite cool.2 mph99%30.41 "HgN/A
8:00 AM40 °FQuite cool.2 mph99%30.40 "HgN/A
7:00 AM40 °FQuite cool.2 mph99%30.39 "HgN/A
6:00 AM39 °FChilly.2 mph99%30.38 "HgN/A
5:00 AM42 °FQuite cool.6 mph99%30.36 "HgN/A
4:00 AM41 °FQuite cool.3 mph97%30.37 "HgN/A
3:00 AM40 °FQuite cool.2 mph97%30.39 "HgN/A
2:00 AM39 °FChilly.2 mph97%30.41 "HgN/A
1:00 AM42 °FQuite cool.1 mph87%30.40 "HgN/A
Weather by CustomWeather, © 2015

See weather overviewHow to use our weather pages